STARLINK-34310, 64210

Orbit data source: Space-Track

STARLINK-34310, 64210 is a payload satellite owned by SpaceX/Seattle (US) in LEO that was launched on Sat, 31 May 2025 UTC via an FALCON 9 launch vehicle from the Air Force Western Test Range (AFWTR). Payload-class satellites include a variety of spacecraft equipped with specific instruments for various scientific and technological missions. These include communications satellites like Starlink; space stations such as the ISS; scientific satellites like the Hubble; Earth observation satellites from companies like Planet Labs, Umbra, and HawkEye 360; GPS; miniature CubeSats for education and research; and military/defense satellites.

Loading next visibility...
Identifier
64210, 2025-117H
Orbit
LEO
Country
Flag of USUS
Related business
Manufacturer
SpaceX/Seattle
Mission
Operational Commercial Communications
Bus & Motor
STARLINK V2MO, Unknown motor
Mass
575 kg wet, ~530 kg dry
Launch date (UTC)
2025-05-31 (1 year ago)
Launch vehicle
FALCON 9
Launch site
Air Force Western Test Range (AFWTR)
Object type
Payload
Rocket body
Debris
Shape & HBR
Box + 1 Pan, 17.7 m
Radar Cross Section
41.120 m², Large (>1 m²)

Expand to show TLE details & history
Last TLE update: 10 hours ago

TLE from 10 hours ago
0 STARLINK-34310
1 64210U 25117H   26235.91668981  .00758650  00000-0  21369-1 0  9998
2 64210  53.1590 342.4778 0002607 125.1930 255.4057 15.33660986  5818
Epoch: 2026-08-23T22:00Z
TLE epoch observation values (Epoch: 2026-08-23T22:00:01.999Z)
Latitude
16.35219°
Longitude
52.89092°
Altitude
465.589 km
Speed
7.636 km/s
True Right ascension
23h 40m 25s
True Declination
16° 15' 20"
Sunlit
Object was in full shadow at epoch
Visualization orbit readout
Latitude
Unknown
Longitude
Unknown
Altitude
Unknown
Speed
Unknown
Apparent Right ascension
Unknown
Apparent Declination
Unknown
Sunlit
N/A
Visualization observer readout
Local Sidereal Time
23:03:51
Azimuth
Unknown
Elevation
Unknown
Doppler factor
Unknown
Orbital elements
Apogee altitude
466.942 km
Perigee altitude
463.374 km
Semi-major axis
6,843.295 km
Eccentricity
0.00026
Inclination
53.159°
RAAN
342.4778°
Arg. of periapsis
125.193°
True anomaly
255.37679°
Mean anomaly
255.4057°
Eccentric anomaly
255.39125°
Mean motion
3.83394 °/min
Orbital period
93.9 mins
BSTAR
0.021369
Loading maneuver chart data...
Computing Atmospheric mass density...
Loading historical data...
Loading historical data...
Loading historical data...
Loading historical data...
Loading historical data...
Loading historical data...
Loading historical data...

Documentation

Showing up to 5 results
|